< < Back
Terminal Aerodrome Forecast


Current Version              Previous Versions:   1  2  3  4  5  6  7  8  9  

Terminal Aerodrome Forecast

102
FTUS44 KMRX 011123
TAFCHA
TAF
KCHA 011123Z 0112/0212 00000KT 6SM BR SCT050
     FM011400 02005KT P6SM SCT050
     FM020300 00000KT P6SM SCT250=

Latest METAR

102
SAUS80 KWBC 021000 RRA
MTRCHA
METAR KCHA 020953Z 35003KT 10SM FEW050 BKN250 22/20 A3011 RMK AO2 SLP188
FIRST T02170200


USA.gov is the U.S. government's official web portal to all federal, state and local government web resources and services.